Terminal Aerodrome Forecast
Issued by NWS State College, PA

Home | Current Version | Previous Version | Text Only | Print | Product List | Glossary On
Versions: 1 2 3 4 5 6 7 8 9 10 11 12 13 14 15 16 17 18 19 20 21 22 23 24 25 26 27 28 29 30 31 32 33 34 35 36 37 38 39 40 41 42 43 44 45 46 47 48 49 50
000
FTUS41 KCTP 062356
TAFIPT
TAF
KIPT 062356Z 0700/0724 00000KT P6SM SCT029 OVC070
     FM070300 09003KT 4SM -DZ BR BKN008 OVC012
     FM071400 VRB04KT 6SM HZ BKN012 OVC020
     FM071600 23002KT P6SM OVC025
     FM071800 18005KT P6SM OVC050
     FM072100 17006KT P6SM SCT250=

USA.gov is the U.S. government's official web portal to all federal, state and local government web resources and services.